Regional Weather Roundup
Issued by NWS

Home | Current Version | Previous Version | Text Only | Print | Product List | Glossary On
Versions: 1 2 3 4 5 6 7 8 9 10 11 12 13 14 15 16 17 18 19 20 21 22 23 24 25 26 27 28 29 30 31 32 33 34 35 36 37 38 39 40 41 42 43 44 45 46 47 48 49 50
000
ASUS43 KDTX 252301
RWRMI
MICHIGAN HOURLY REGIONAL WEATHER ROUNDUP
NATIONAL WEATHER SERVICE DETROIT/PONTIAC MI
700 PM EDT THU AUG 25 2016

NOTE: "FAIR" INDICATES FEW OR NO CLOUDS BELOW 12,000 FEET WITH NO
SIGNIFICANT WEATHER AND/OR OBSTRUCTION TO VISIBILITY.

MIZ047>049-052>055-059>063-066>070-074>076-081>083-260000-
SOUTHEAST LOWER MICHIGAN

CITY           SKY/WX    TMP DP  RH WIND       PRES   REMARKS
ADRIAN         SUNNY     81  69  67 W15       30.00S
ALMA           SUNNY     80  67  64 W10G20    29.98R
ANN ARBOR      MOSUNNY   81  70  69 W8        29.98R
BAD AXE        SUNNY     78  66  67 W7        29.95S
CARO           SUNNY     80  70  70 W3        29.95S
DETROIT CITY   SUNNY     83  69  62 W9G20     29.95S
DETROIT        MOSUNNY   83  70  64 W12       29.96S
FLINT          SUNNY     82  71  69 W9        29.97S
GROSSE ILE     MOSUNNY   84  68  59 W10G18    29.95S
HILLSDALE      MOSUNNY   78  69  73 W8        30.01S
HOWELL         SUNNY     80  68  67 W9        29.98S

CITY           SKY/WX    TMP DP  RH WIND       PRES   REMARKS
JACKSON        MOSUNNY   79  71  76 W9        30.00S
LAMBERTVILLE   SUNNY     84  69  58 W8G17     29.99R
LANSING        SUNNY     80  62  54 W12       29.99S
LAPEER         FAIR      77  73  85 W6        29.97S
MASON          MOSUNNY   79  68  69 W9G16     30.00R
MONROE         SUNNY     83  69  62 W14G22    29.96S
MT. CLEMENS    MOSUNNY   82  69  64 W13       29.93S
PONTIAC        MOSUNNY   80  70  71 W14       29.97S
PORT HURON     PTSUNNY   75  72  88 CALM      29.96R
TRI CITIES     MOSUNNY   81  67  62 W10       29.96R
MIDLAND        FAIR      82  63  53 W6        29.94S
TROY           SUNNY     83  68  60 W7G17     29.98S
SAGINAW HB     MOSUNNY   81  64  57 W12       29.95S
$$
MIZ043>046-050>051-056>058-064>065-071>073-077>080-260000-
SOUTHWEST LOWER MICHIGAN

CITY           SKY/WX    TMP DP  RH WIND       PRES   REMARKS
BATTLE CREEK   MOSUNNY   77  69  76 W8        30.02S
BENTON HARBOR  SUNNY     75  67  76 CALM      30.03F
BIG RAPIDS     SUNNY     78  57  49 W5        30.00R
COLDWATER      MOSUNNY   79  68  69 W7        30.02S
FREMONT        FAIR      75  55  49 W8        30.01R
HOLLAND        SUNNY     73  63  70 W6        30.03S
GRAND RAPIDS   MOSUNNY   78  58  49 W10       30.02R
IONIA          FAIR      77  57  49 W10       30.00R
KALAMAZOO      SUNNY     77  65  66 W10       30.03R
LUDINGTON      SUNNY     73  62  67 SW7       30.00R
MARSHALL       MOSUNNY   79  70  73 W10       30.01R
MOUNT PLEASANT SUNNY     81  62  52 W9        29.96S
MUSKEGON       MOSUNNY   75  62  64 W6        30.02R
SOUTH HAVEN    SUNNY     76  66  71 W3        30.03S
$$
MIZ016>042-260000-
NORTHERN LOWER MICHIGAN

CITY           SKY/WX    TMP DP  RH WIND       PRES   REMARKS
ALPENA         SUNNY     82  57  42 W5        29.93R
BEAVER ISLAND  SUNNY     72  62  70 SW8       29.94F
BELLAIRE       SUNNY     74  56  53 W3        29.97S
CADILLAC       SUNNY     74  55  50 W13       30.00R
CHARLEVOIX     SUNNY     73  59  60 W12       29.98F
FRANKFORT      SUNNY     74  62  66 SW6       29.98S
GAYLORD        SUNNY     74  55  51 W14       29.98S
GRAYLING       SUNNY     77  61  58 W8        29.98S
HARBOR SPRINGS SUNNY     73  59  61 W5        29.95S
HOUGHTON LAKE  SUNNY     78  59  51 NW13      29.98R
MANISTEE       SUNNY     74  60  61 W6        29.99S
OSCODA         SUNNY     82  61  48 W9        29.91S
PELLSTON       SUNNY     73  57  57 W8        29.95S
ROGERS CITY    SUNNY     76  58  53 W9G16     29.93S
TRAVERSE CITY  MOSUNNY   76  55  48 W10       29.96S
$$
MIZ007>008-015-260000-
EASTERN UPPER MICHIGAN

CITY           SKY/WX    TMP DP  RH WIND       PRES   REMARKS
KINROSS        PTSUNNY   71  57  61 NW6       29.93R
MACKINAC ISLAN SUNNY     71  62  72 SW12G18   29.93S
NEWBERRY       CLOUDY    74  60  60 S3        29.92S
S. S. MARIE    SUNNY     73  55  53 NW9       29.92S
MUNISING         N/A     73  60  63 NW3       29.90F
$$
MIZ004>006-011>014-085-260000-
CENTRAL UPPER MICHIGAN

CITY           SKY/WX    TMP DP  RH WIND       PRES   REMARKS
MANISTIQUE     SUNNY     71  64  80 S8        29.92F
ESCANABA       SUNNY     80  57  45 W12       29.91S
MENOMINEE      SUNNY    N/A N/A N/A SW6       29.95R
SAWYER-GWINN   MOSUNNY   75  54  46 W12       29.93S
$$
MIZ001>003-009>011-084-260000-
WESTERN UPPER MICHIGAN

CITY           SKY/WX    TMP DP  RH WIND       PRES   REMARKS
IRON MOUNTAIN  MOSUNNY   77  55  46 W15G22    29.93S
HOUGHTON       CLOUDY    68  55  63 W21G28    29.92R
COPPER HARBOR    N/A     72  54  53 NW13G28   29.88S
IRONWOOD       MOSUNNY   69  52  54 W18G25    29.99R
$$

ABBREVIATIONS USED IN REMARKS
   TC - TEMPERATURE IN CELSIUS
  WCI - WIND CHILL INDEX
   HX - HEAT INDEX
  VSB - VISIBILITY





USA.gov is the U.S. government's official web portal to all federal, state and local government web resources and services.